Location: Mentone
(34.5413°N, 85.5351°W)
Time: 04:37:56
(UTC-06:00)

Vanguard 2 Rocket - Visible Passes

Search period start: 21 December 2014 00:00
Search period end: 31 December 2014 00:00
Orbit: 554 x 3334 km, 32.9° (Epoch: 19 December)

Date Brightness Start Highest point End Pass type
(mag) Time Alt. Az. Time Alt. Az. Time Alt. Az.
21 Dec 9.5 06:09:43 10° S 06:14:08 20° SE 06:20:19 10° E visible
21 Dec 11.6 17:26:25 10° WSW 17:33:23 13° SW 17:40:16 10° SSW visible
24 Dec 9.2 05:28:19 10° S 05:31:49 18° SE 05:36:25 10° E visible
26 Dec 8.7 05:43:18 10° SSW 05:47:32 29° SE 05:53:46 10° E visible
27 Dec 8.8 04:46:52 10° S 04:49:39 16° SE 04:53:02 10° ESE visible
28 Dec 7.9 05:59:01 10° SW 06:03:31 45° SSE 06:10:33 10° E visible
29 Dec 8.2 05:01:52 10° SSW 05:05:30 27° SSE 05:10:26 10° E visible
30 Dec 8.6 04:07:10 15° SSE 04:07:35 15° SE 04:10:15 10° ESE visible
30 Dec 7.3 06:15:09 10° WSW 06:19:44 61° SSE 06:27:06 10° E visible
